Location: Cointrin
(46.2167°N, 6.1167°E)
Time: 19:23:12
(UTC+00:00)

IRIDIUM 103 - Pass Details

Date: 08 February 2023
Orbit: 776 x 779 km, 86.4° (Epoch: 21 March)

Event Time Altitude Azimuth Distance (km) Brightness Sun altitude
Rises 17:38:34 0° 359° (N) 3,274 7.4 -8.8°
Reaches altitude 10° 17:40:58 10° 3° (N) 2,341 6.7 -9.2°
Maximum altitude 17:46:09 61° 84° (E) 886 4.3 -10.1°
Drops below altitude 10° 17:51:17 10° 164° (SSE) 2,322 6.7 -11.0°
Sets 17:53:39 0° 168° (SSE) 3,245 7.5 -11.4°
